Location: Newark
(52.5833°N, 15.0067°E)
Time: 15:34:30
(UTC+00:00)

N. Korean satellite - Visible Passes

Search period start: 22 September 2020 00:00
Search period end: 02 October 2020 00:00
Orbit: 455 x 503 km, 97.2° (Epoch: 21 September)

Date Brightness Start Highest point End Pass type
(mag) Time Alt. Az. Time Alt. Az. Time Alt. Az.
22 Sep 10.0 03:30:54 10° NE 03:32:51 14° E 03:34:47 10° ESE visible
24 Sep 8.6 04:11:07 10° NNE 04:14:32 34° E 04:17:52 10° SSE visible
25 Sep 9.7 03:45:37 10° NE 03:48:19 19° E 03:50:59 10° SE visible
26 Sep 10.3 03:21:11 10° ENE 03:22:01 11° E 03:22:51 10° E visible
28 Sep 9.1 04:00:35 10° NE 04:03:44 27° E 04:06:50 10° SSE visible
29 Sep 9.9 03:35:19 10° NE 03:37:29 15° E 03:39:38 10° SE visible
01 Oct 8.3 04:15:41 10° NNE 04:19:06 38° E 04:22:27 10° SSE visible
